User: anonymous   Login
Location: Curupao
(10.4996°N, 66.6442°W)
Time: 19:35:21
(UTC+00:00)
Language:

Hubble Space Telescope - Orbit

View from above orbital plane
View from above orbital plane
View from above satellite
View from above satellite

Ground track
Ground track

The orbit data is extracted from the following two-line orbital elements,

1 20580U 90037B   24201.92782282  .00008482  00000-0  39443-3 0  9991
2 20580  28.4678 125.6991 0002537  33.2514 326.8238 15.18168117682018
Epoch (UTC): 19 July 2024 22:16:03
Eccentricity: 0.0002537
inclination: 28.4678°
perigee height: 509 km
apogee height: 513 km
right ascension of ascending node: 125.6991°
argument of perigee: 33.2514°
revolutions per day: 15.18168117
mean anomaly at epoch: 326.8238°
orbit number at epoch: 68201

The dashed part of the orbit path shows where the satellite is in the earth's shadow,  

DLR